Salamanca, Spain

9:20 AM CEST on April 27, 2017 (GMT +0200)
Matacan

Weather History for LESA - August, 2013

Change the Weather History Date:

Sunday, August 4, 2013

  Actual Average Record
Temperature  
Mean Temperature 68 °F -  
Max Temperature 91 °F - - ()
Min Temperature 46 °F - - ()
Cooling Degree Days 4    
Growing Degree Days 18 (Base 50)    
Moisture  
Dew Point 49 °F    
Average Humidity 58    
Maximum Humidity 100    
Minimum Humidity 10    
Precipitation  
Precipitation 0.00 in 0.02 in - ()
Sea Level Pressure  
Sea Level Pressure 30.17 in    
Wind  
Wind Speed 2 mph ()    
Max Wind Speed 7 mph    
Max Gust Speed -    
Visibility 12.0 miles    
Events      
T = Trace of Precipitation, MM = Missing Value Source: Averaged Metar Reports

Daily Weather History Graph

Daily Weather History Graph

Search for Another Location

Airport or City:

Trip Planner

Search our weather history database for the weather conditions in past years. The results will help you decide how hot, cold, wet, or windy it might be!

Date:

Astronomy

Aug. 04, 2013 Rise Set
Actual Time 7:21 AM CEST 9:34 PM CEST
Civil Twilight 6:50 AM CEST 10:04 PM CEST
Nautical Twilight 6:12 AM CEST 10:42 PM CEST
Astronomical Twilight 5:31 AM CEST 11:23 PM CEST
Moon 5:09 AM CEST (8/4) 7:48 PM CEST (8/4)
Length of Visible Light 15h 14m
Length of Day
14h 13m
Waning Crescent, 6% of the Moon is Illuminated
Aug 4
Waning Crescent
Aug 6
New
Aug 14
First Quarter
Aug 21
Full
Aug 28
Last Quarter

Hourly Weather History & Observations

Time (CEST) Temp. Heat Index Dew Point Humidity Pressure Visibility Wind Dir Wind Speed Gust Speed Precip Events Conditions
12:00 AM 59.0 °F - 48.2 °F 67% 30.21 in - Variable 2.3 mph - N/A   Clear
12:30 AM 55.4 °F - 50.0 °F 82% 30.21 in - West 3.5 mph - N/A   Clear
1:00 AM 57.2 °F - 48.2 °F 72% 30.21 in - Variable 2.3 mph - N/A   Clear
1:30 AM 57.2 °F - 48.2 °F 72% 30.21 in - SSE 3.5 mph - N/A   Clear
2:00 AM 56 °F - 48 °F 67%  in 12 mi Calm Calm - -   Clear
2:00 AM 55.4 °F - 50.0 °F 82% 30.21 in - Calm Calm - N/A   Clear
2:30 AM 55.4 °F - 50.0 °F 82% 30.21 in - Calm Calm - N/A   Clear
3:00 AM 51.8 °F - 50.0 °F 94% 30.21 in - Calm Calm - N/A   Clear
3:30 AM 51.8 °F - 48.2 °F 88% 30.21 in - Calm Calm - N/A   Clear
4:00 AM 51.8 °F - 50.0 °F 94% 30.21 in - Calm Calm - N/A   Clear
4:30 AM 50.0 °F - 48.2 °F 94% 30.21 in - Variable 1.2 mph - N/A   Clear
5:00 AM 50.0 °F - 48.2 °F 94% 30.21 in - Calm Calm - N/A   Clear
5:30 AM 50.0 °F - 48.2 °F 94% 30.18 in - Calm Calm - N/A   Clear
6:00 AM 50.0 °F - 48.2 °F 94% 30.18 in - Calm Calm - N/A   Clear
6:30 AM 48.2 °F - 48.2 °F 100% 30.18 in - Calm Calm - N/A   Clear
7:00 AM 46.4 °F - 46.4 °F 100% 30.21 in - Variable 2.3 mph - N/A   Clear
7:30 AM 48.2 °F - 46.4 °F 93% 30.21 in - Calm Calm - N/A   Clear
8:00 AM 48 °F - 46 °F 89%  in 12 mi Calm Calm - -   Clear
8:00 AM 48.2 °F - 46.4 °F 93% 30.21 in - Calm Calm - N/A   Clear
8:30 AM 53.6 °F - 48.2 °F 82% 30.21 in - Calm Calm - N/A   Clear
9:00 AM 55.4 °F - 50.0 °F 82% 30.21 in - Calm Calm - N/A   Clear
9:30 AM 60.8 °F - 48.2 °F 63% 30.21 in - Calm Calm - N/A   Clear
10:00 AM 62.6 °F - 53.6 °F 72% 30.21 in - Variable 2.3 mph - N/A   Clear
10:30 AM 66.2 °F - 57.2 °F 73% 30.21 in - Variable 2.3 mph - N/A   Clear
11:00 AM 68.0 °F - 55.4 °F 64% 30.21 in - Variable 2.3 mph - N/A   Clear
11:30 AM 69.8 °F - 55.4 °F 60% 30.21 in - Variable 2.3 mph - N/A   Clear
12:00 PM 73.4 °F - 50.0 °F 44% 30.21 in - Variable 2.3 mph - N/A   Clear
12:30 PM 75.2 °F - 50.0 °F 41% 30.21 in - East 4.6 mph - N/A   Clear
1:00 PM 78.8 °F - 48.2 °F 34% 30.21 in - East 4.6 mph - N/A   Clear
1:30 PM 80.6 °F - 44.6 °F 28% 30.18 in - ENE 5.8 mph - N/A   Clear
2:00 PM 82 °F - 44 °F 16%  in 12 mi NE 5.8 mph - -   Clear
2:00 PM 80.6 °F - 44.6 °F 28% 30.18 in - ENE 4.6 mph - N/A   Clear
2:30 PM 82.4 °F - 44.6 °F 26% 30.18 in - ENE 3.5 mph - N/A   Clear
3:00 PM 84.2 °F - 44.6 °F 25% 30.15 in - Variable 2.3 mph - N/A   Clear
3:30 PM 84.2 °F - 48.2 °F 29% 30.15 in - NNW 4.6 mph - N/A   Clear
4:00 PM 84.2 °F - 44.6 °F 25% 30.15 in - NNW 3.5 mph - N/A   Clear
4:30 PM 84.2 °F - 48.2 °F 29% 30.12 in - Variable 2.3 mph - N/A   Clear
5:00 PM 86.0 °F - 46.4 °F 25% 30.12 in - Variable 2.3 mph - N/A   Clear
5:30 PM 87.8 °F - 44.6 °F 22% 30.12 in - Variable 1.2 mph - N/A   Clear
6:00 PM 87.8 °F - 44.6 °F 22% 30.09 in - East 4.6 mph - N/A   Clear
6:30 PM 89.6 °F - 42.8 °F 20% 30.09 in - ENE 3.5 mph - N/A   Clear
7:00 PM 87.8 °F - 50.0 °F 27% 30.09 in - Variable 1.2 mph - N/A   Clear
7:30 PM 87.8 °F - 42.8 °F 21% 30.06 in - Variable 1.2 mph - N/A   Clear
8:00 PM 92 °F - 42 °F 10%  in 12 mi Calm Calm - -  
8:00 PM 87.8 °F - 48.2 °F 25% 30.06 in - Calm Calm - N/A   Clear
8:30 PM 87.8 °F 85.7 °F 53.6 °F 31% 30.06 in - Calm Calm - N/A   Clear
9:00 PM 84.2 °F 83.0 °F 55.4 °F 37% 30.06 in - Calm Calm - N/A   Clear
9:30 PM 77.0 °F - 57.2 °F 50% 30.09 in - Variable 1.2 mph - N/A   Clear
10:00 PM 73.4 °F - 50.0 °F 44% 30.09 in - WSW 6.9 mph - N/A   Clear
10:30 PM 68.0 °F - 55.4 °F 64% 30.09 in - WNW 5.8 mph - N/A   Clear
11:00 PM 68.0 °F - 55.4 °F 64% 30.12 in - WNW 5.8 mph - N/A   Clear
11:30 PM 66.2 °F - 53.6 °F 64% 30.12 in - Calm Calm - N/A   Clear